EW0610 Weather Reports


Display with metric or nautical units.
time (UTC)temp
F
wind
direction
speed
MPH
gust
MPH
rain 1hr
in
rain 24hr
in
rain mn
in
humidity
%
barometer
mb
20260510060039 76 45 5.0 13.0 0.00 0.00 0.00 66 1011.4
20260510055521 77 326 5.0 16.0 0.00 0.00 0.00 66 1011.2
20260510055027 77 2 5.0 11.0 0.00 0.00 0.00 66 1010.6
20260510054532 77 115 3.0 7.0 0.00 0.00 0.00 65 1009.5
20260510054038 77 126 2.0 10.0 0.00 0.00 0.00 65 1008.9
20260510053526 77 118 3.0 10.0 0.00 0.00 0.00 65 1008.8
20260510053032 77 120 2.0 10.0 0.00 0.00 0.00 65 1008.8
20260510052536 77 114 1.0 10.0 0.00 0.00 0.00 64 1008.8
20260510052044 77 110 1.0 10.0 0.00 0.00 0.00 64 1008.8
20260510051603 77 113 4.0 9.0 0.00 0.00 0.00 64 1008.6
20260510051025 77 115 5.0 9.0 0.00 0.00 0.00 63 1008.6
20260510050532 78 116 2.0 11.0 0.00 0.00 0.00 63 1008.6
20260510050043 78 121 1.0 11.0 0.00 0.00 0.00 63 1008.6
20260510045529 78 120 4.0 12.0 0.00 0.00 0.00 62 1008.3
20260510045035 78 127 2.0 12.0 0.00 0.00 0.00 62 1008.2
20260510044521 78 126 6.0 12.0 0.00 0.00 0.00 62 1008.0
20260510044028 78 124 6.0 12.0 0.00 0.00 0.00 61 1007.8
20260510043530 78 134 8.0 12.0 0.00 0.00 0.00 61 1007.8
20260510043036 78 129 7.0 11.0 0.00 0.00 0.00 61 1007.8
20260510042521 78 119 4.0 11.0 0.00 0.00 0.00 60 1008.0
20260510042032 78 118 6.0 11.0 0.00 0.00 0.00 60 1008.1
20260510041521 78 114 6.0 11.0 0.00 0.00 0.00 60 1008.2
20260510041026 78 115 1.0 10.0 0.00 0.00 0.00 60 1008.3
20260510040533 78 122 4.0 9.0 0.00 0.00 0.00 60 1008.2
20260510040055 78 110 2.0 9.0 0.00 0.00 0.00 60 1008.2
20260510035539 78 125 3.0 10.0 0.00 0.00 0.00 59 1008.3
20260510035023 78 118 5.0 10.0 0.00 0.00 0.00 59 1008.4
20260510034558 78 116 4.0 9.0 0.00 0.00 0.00 59 1008.3
20260510034043 78 124 1.0 6.0 0.00 0.00 0.00 59 1008.4
20260510033527 78 127 0.0 6.0 0.00 0.00 0.00 60 1008.4
20260510033033 78 123 1.0 6.0 0.00 0.00 0.00 60 1008.4
20260510032540 78 118 2.0 6.0 0.00 0.00 0.00 60 1008.5
20260510032027 78 123 2.0 5.0 0.00 0.00 0.00 59 1008.6
20260510031533 78 122 0.0 4.0 0.00 0.00 0.00 59 1008.7
20260510031041 78 122 0.0 4.0 0.00 0.00 0.00 59 1008.8
20260510030526 79 118 1.0 6.0 0.00 0.00 0.00 59 1008.6
20260510030033 79 112 1.0 6.0 0.00 0.00 0.00 58 1008.5
20260510025537 79 120 1.0 6.0 0.00 0.00 0.00 59 1008.5
20260510025028 79 117 2.0 5.0 0.00 0.00 0.00 59 1008.5
20260510024554 79 117 2.0 5.0 0.00 0.00 0.00 59 1008.4
20260510024041 79 114 0.0 6.0 0.00 0.00 0.00 60 1008.5
20260510023526 79 112 1.0 6.0 0.00 0.00 0.00 61 1008.4
20260510023029 79 115 1.0 4.0 0.00 0.00 0.00 62 1008.4
20260510022554 79 112 1.0 4.0 0.00 0.00 0.00 62 1008.3
20260510022022 79 114 0.0 5.0 0.00 0.00 0.00 62 1008.1
20260510021527 80 113 0.0 5.0 0.00 0.00 0.00 62 1008.1
20260510021036 80 115 0.0 4.0 0.00 0.00 0.00 62 1008.1
20260510020524 80 114 0.0 5.0 0.00 0.00 0.00 62 1008.1
20260510015525 81 110 2.0 5.0 0.00 0.00 0.00 61 1007.8
20260510015040 81 109 0.0 5.0 0.00 0.00 0.00 61 1007.9
20260510014542 82 107 0.0 5.0 0.00 0.00 0.00 60 1007.8
20260510014029 82 105 0.0 6.0 0.00 0.00 0.00 58 1007.9
20260510013558 82 102 3.0 11.0 0.00 0.00 0.00 57 1007.7
20260510013037 83 102 2.0 11.0 0.00 0.00 0.00 56 1007.6
20260510012525 83 77 0.0 10.0 0.00 0.00 0.00 55 1007.6
20260510012030 83 87 5.0 10.0 0.00 0.00 0.00 54 1007.6
20260510011601 83 71 2.0 9.0 0.00 0.00 0.00 52 1007.4
20260510011043 83 104 0.0 0.0 0.00 0.00 0.00 51 1007.3
20260510010524 84 114 0.0 0.0 0.00 0.00 0.00 50 1007.3
20260510010030 84 111 0.0 4.0 0.00 0.00 0.00 50 1007.3
20260510005534 84 111 2.0 4.0 0.00 0.00 0.00 50 1007.3
20260510005022 85 116 0.0 1.0 0.00 0.00 0.00 50 1007.2
20260510004558 85 110 0.0 3.0 0.00 0.00 0.00 49 1007.2
20260510004044 86 105 0.0 4.0 0.00 0.00 0.00 48 1007.2
20260510003532 86 111 1.0 5.0 0.00 0.00 0.00 48 1007.2
20260510003059 86 111 2.0 6.0 0.00 0.00 0.00 47 1007.1
20260510002542 86 108 0.0 6.0 0.00 0.00 0.00 47 1007.1
20260510002032 86 104 5.0 7.0 0.00 0.00 0.00 46 1007.2
20260510001537 87 112 1.0 9.0 0.00 0.00 0.00 45 1007.2
20260510001024 87 100 3.0 9.0 0.00 0.00 0.00 45 1007.3
20260510000533 87 105 6.0 8.0 0.00 0.00 0.00 43 1007.2
20260510000032 87 94 2.0 8.0 0.00 0.00 0.00 43 1007.2
20260509235520 88 102 1.0 8.0 0.00 0.00 0.00 42 1007.2
20260509235055 88 122 3.0 7.0 0.00 0.00 0.00 44 1007.4
20260509234520 88 108 3.0 6.0 0.00 0.00 0.00 43 1007.3
20260509234031 88 108 0.0 6.0 0.00 0.00 0.00 43 1007.4
20260509233521 89 104 3.0 6.0 0.00 0.00 0.00 43 1007.4
20260509233032 89 99 4.0 6.0 0.00 0.00 0.00 43 1007.5
20260509232540 89 74 0.0 6.0 0.00 0.00 0.00 42 1007.5
20260509232023 89 53 3.0 8.0 0.00 0.00 0.00 43 1007.5
20260509231531 89 47 1.0 8.0 0.00 0.00 0.00 42 1007.6
20260509231042 89 81 3.0 11.0 0.00 0.00 0.00 43 1007.5
20260509230549 89 67 5.0 11.0 0.00 0.00 0.00 43 1007.6
20260509230037 89 111 3.0 8.0 0.00 0.00 0.00 44 1007.6
20260509225537 89 70 4.0 10.0 0.00 0.00 0.00 44 1007.6
20260509225023 88 93 3.0 7.0 0.00 0.00 0.00 45 1007.5
20260509224552 89 89 5.0 9.0 0.00 0.00 0.00 46 1007.5
20260509224034 89 97 2.0 9.0 0.00 0.00 0.00 45 1007.5
20260509223540 89 63 3.0 9.0 0.00 0.00 0.00 46 1007.5
20260509223027 89 56 4.0 10.0 0.00 0.00 0.00 46 1007.5
20260509222536 88 96 5.0 10.0 0.00 0.00 0.00 47 1007.6
20260509222027 88 110 5.0 10.0 0.00 0.00 0.00 47 1007.6
20260509221537 88 105 0.0 6.0 0.00 0.00 0.00 47 1007.5
20260509221025 88 108 0.0 6.0 0.00 0.00 0.00 47 1007.6
20260509220533 88 77 1.0 7.0 0.00 0.00 0.00 47 1007.6
20260509220024 88 96 1.0 7.0 0.00 0.00 0.00 47 1007.6
20260509215531 89 84 0.0 7.0 0.00 0.00 0.00 48 1007.7
20260509215022 88 87 1.0 7.0 0.00 0.00 0.00 48 1007.7
20260509214550 89 111 1.0 8.0 0.00 0.00 0.00 48 1007.7
20260509214103 89 73 4.0 10.0 0.00 0.00 0.00 47 1007.7
20260509213526 88 94 5.0 10.0 0.00 0.00 0.00 48 1007.7
20260509213038 88 95 0.0 11.0 0.00 0.00 0.00 48 1007.8
20260509212543 88 109 7.0 11.0 0.00 0.00 0.00 48 1007.7
20260509212029 89 97 6.0 9.0 0.00 0.00 0.00 47 1007.8
20260509211520 89 19 2.0 10.0 0.00 0.00 0.00 47 1007.9
20260509211051 89 99 1.0 10.0 0.00 0.00 0.00 48 1008.0
20260509210536 89 97 0.0 2.0 0.00 0.00 0.00 50 1008.2
20260509210023 88 67 0.0 3.0 0.00 0.00 0.00 51 1008.3
20260509205527 88 91 0.0 13.0 0.00 0.00 0.00 51 1008.2
20260509205031 88 92 0.0 13.0 0.00 0.00 0.00 51 1008.3
20260509204522 88 77 3.0 7.0 0.00 0.00 0.00 51 1008.3
20260509204031 88 100 1.0 12.0 0.00 0.00 0.00 52 1008.4
20260509203540 88 121 0.0 12.0 0.00 0.00 0.00 52 1008.4
20260509203025 88 45 5.0 7.0 0.00 0.00 0.00 53 1008.5
20260509202553 88 114 0.0 9.0 0.00 0.00 0.00 52 1008.6
20260509202104 89 126 1.0 9.0 0.00 0.00 0.00 52 1008.6
20260509201544 89 55 0.0 2.0 0.00 0.00 0.00 51 1008.7
20260509201027 88 99 0.0 0.0 0.00 0.00 0.00 46 1008.7
20260509200536 88 74 0.0 0.0 0.00 0.00 0.00 49 1008.7
20260509200044 88 64 0.0 0.0 0.00 0.00 0.00 51 1008.9
20260509195531 88 51 0.0 0.0 0.00 0.00 0.00 48 1008.9
20260509195043 89 60 0.0 5.0 0.00 0.00 0.00 49 1009.0
20260509194525 88 303 1.0 5.0 0.00 0.00 0.00 49 1009.0
20260509194033 88 349 0.0 6.0 0.00 0.00 0.00 48 1009.1
20260509193535 88 353 1.0 10.0 0.00 0.00 0.00 46 1009.1
20260509193040 88 41 1.0 10.0 0.00 0.00 0.00 49 1009.2
20260509192528 87 299 0.0 5.0 0.00 0.00 0.00 49 1009.2
20260509192031 87 92 1.0 5.0 0.00 0.00 0.00 49 1009.2
20260509191602 87 47 1.0 10.0 0.00 0.00 0.00 48 1009.2
20260509191041 87 56 3.0 10.0 0.00 0.00 0.00 49 1009.3
20260509190523 87 50 2.0 9.0 0.00 0.00 0.00 51 1009.4
20260509190035 87 72 2.0 4.0 0.00 0.00 0.00 51 1009.4
20260509185526 87 335 1.0 5.0 0.00 0.00 0.00 51 1009.4
20260509185034 87 345 0.0 6.0 0.00 0.00 0.00 50 1009.5
20260509184525 86 16 1.0 4.0 0.00 0.00 0.00 52 1009.6
20260509184031 85 353 0.0 3.0 0.00 0.00 0.00 50 1009.6
20260509183538 85 353 0.0 6.0 0.00 0.00 0.00 51 1009.7
20260509183024 86 9 1.0 6.0 0.00 0.00 0.00 50 1009.7
20260509182533 86 312 1.0 5.0 0.00 0.00 0.00 53 1009.7
20260509182020 85 328 0.0 4.0 0.00 0.00 0.00 51 1009.7
20260509181528 86 355 0.0 7.0 0.00 0.00 0.00 49 1009.8
20260509181031 85 53 4.0 7.0 0.00 0.00 0.00 51 1009.9
20260509180520 85 7 0.0 7.0 0.00 0.00 0.00 50 1009.8
20260509180026 85 59 2.0 7.0 0.00 0.00 0.00 51 1010.0
20260509175600 85 301 0.0 6.0 0.00 0.00 0.00 50 1009.9
20260509175045 85 345 1.0 5.0 0.00 0.00 0.00 50 1010.0
20260509174548 85 334 0.0 9.0 0.00 0.00 0.00 50 1010.0
20260509174035 85 35 0.0 9.0 0.00 0.00 0.00 50 1010.0
20260509173526 85 35 1.0 10.0 0.00 0.00 0.00 50 1010.1
20260509173031 85 340 2.0 10.0 0.00 0.00 0.00 50 1010.1
20260509172539 85 346 0.0 9.0 0.00 0.00 0.00 51 1010.1
20260509172029 85 20 1.0 11.0 0.00 0.00 0.00 50 1010.2
20260509171601 85 29 3.0 11.0 0.00 0.00 0.00 51 1010.2
20260509171025 85 28 1.0 9.0 0.00 0.00 0.00 51 1010.3
20260509170532 84 6 2.0 6.0 0.00 0.00 0.00 51 1010.3
20260509170119 84 301 3.0 9.0 0.00 0.00 0.00 53 1010.4
20260509165532 84 302 0.0 9.0 0.00 0.00 0.00 53 1010.3
20260509165039 83 347 2.0 7.0 0.00 0.00 0.00 52 1010.5
20260509164526 84 327 2.0 10.0 0.00 0.00 0.00 51 1010.4
20260509164032 83 320 2.0 10.0 0.00 0.00 0.00 53 1010.5
20260509163535 83 322 1.0 6.0 0.00 0.00 0.00 55 1010.5
20260509163023 83 318 1.0 9.0 0.00 0.00 0.00 52 1010.6
20260509162529 83 340 3.0 9.0 0.00 0.00 0.00 52 1010.6
20260509162048 83 11 1.0 9.0 0.00 0.00 0.00 54 1010.6
20260509161605 83 306 1.0 7.0 0.00 0.00 0.00 56 1010.5
20260509161044 82 358 5.0 7.0 0.00 0.00 0.00 54 1010.5
20260509160527 82 318 2.0 7.0 0.00 0.00 0.00 56 1010.5
20260509160034 82 323 2.0 5.0 0.00 0.00 0.00 54 1010.5
20260509155523 81 312 3.0 11.0 0.00 0.00 0.00 56 1010.3
20260509155042 81 311 2.0 11.0 0.00 0.00 0.00 56 1010.3
20260509154526 81 313 0.0 12.0 0.00 0.00 0.00 57 1010.3
20260509154032 81 293 4.0 12.0 0.00 0.00 0.00 55 1010.3
20260509153523 81 331 1.0 11.0 0.00 0.00 0.00 57 1010.3
20260509153027 80 288 4.0 11.0 0.00 0.00 0.00 58 1010.4
20260509152537 80 299 5.0 14.0 0.00 0.00 0.00 58 1010.4
20260509152042 80 297 9.0 14.0 0.00 0.00 0.00 58 1010.4
20260509151526 79 316 3.0 11.0 0.00 0.00 0.00 58 1010.5
20260509151057 79 308 3.0 13.0 0.00 0.00 0.00 59 1010.5
20260509150523 79 299 4.0 13.0 0.00 0.00 0.00 59 1010.5
20260509150032 79 310 4.0 13.0 0.00 0.00 0.00 58 1010.5
20260509145521 78 294 4.0 12.0 0.00 0.00 0.00 58 1010.6
20260509145027 78 310 4.0 12.0 0.00 0.00 0.00 59 1010.6
20260509144552 77 324 4.0 12.0 0.00 0.00 0.00 61 1010.5
20260509144032 77 289 2.0 9.0 0.00 0.00 0.00 64 1010.4
20260509143540 77 297 3.0 12.0 0.00 0.00 0.00 65 1010.5
20260509143027 76 301 5.0 12.0 0.00 0.00 0.00 67 1010.5
20260509142531 76 301 3.0 10.0 0.00 0.00 0.00 68 1010.5
20260509142037 76 343 3.0 9.0 0.00 0.00 0.00 68 1010.5
20260509141544 76 318 1.0 6.0 0.00 0.00 0.00 73 1010.5
20260509141023 75 312 2.0 5.0 0.00 0.00 0.00 74 1010.5
20260509140531 74 309 1.0 4.0 0.00 0.00 0.00 75 1010.5
20260509140020 74 349 0.0 0.0 0.00 0.00 0.00 77 1010.6
20260509135529 74 339 0.0 2.0 0.00 0.00 0.00 78 1010.6
20260509135031 73 343 0.0 7.0 0.00 0.00 0.00 78 1010.6
20260509134519 73 306 1.0 7.0 0.00 0.01 0.00 80 1010.6
20260509134045 73 315 0.0 4.0 0.00 0.01 0.00 80 1010.5
20260509133542 72 306 1.0 6.0 0.00 0.01 0.00 81 1010.5
20260509133042 72 304 1.0 6.0 0.00 0.01 0.00 82 1010.4
20260509132551 71 316 2.0 6.0 0.00 0.01 0.00 83 1010.4
20260509132037 71 297 0.0 5.0 0.00 0.01 0.00 84 1010.4
20260509131545 70 326 1.0 4.0 0.00 0.01 0.00 85 1010.4
20260509131031 70 302 0.0 4.0 0.00 0.01 0.00 85 1010.4
20260509130531 70 302 0.0 6.0 0.00 0.01 0.00 86 1010.4
20260509130038 69 288 1.0 6.0 0.00 0.01 0.00 86 1010.4
20260509125543 69 289 1.0 5.0 0.00 0.01 0.00 86 1010.5
20260509125046 69 290 0.0 5.0 0.00 0.01 0.00 86 1010.5
20260509124548 69 290 1.0 5.0 0.00 0.08 0.00 86 1010.4
20260509124031 68 307 0.0 0.0 0.00 0.08 0.00 87 1010.5
20260509123531 68 308 0.0 0.0 0.00 0.08 0.00 87 1010.3
20260509123039 68 308 0.0 0.0 0.00 0.08 0.00 87 1010.4
20260509122530 68 308 0.0 0.0 0.00 0.08 0.00 86 1010.3
20260509122036 68 308 0.0 4.0 0.00 0.08 0.00 86 1010.3
20260509121522 68 307 0.0 4.0 0.00 0.08 0.00 86 1010.3
20260509121030 68 307 1.0 6.0 0.00 0.08 0.00 86 1010.2
20260509120537 68 306 0.0 6.0 0.00 0.08 0.00 86 1010.1
20260509120025 68 320 0.0 3.0 0.00 0.08 0.00 86 1010.1
20260509115528 68 319 1.0 3.0 0.00 0.08 0.00 86 1010.1
20260509115030 68 316 0.0 6.0 0.00 0.08 0.00 85 1010.0
20260509114541 68 301 1.0 6.0 0.00 0.08 0.00 85 1009.9
20260509114043 68 327 0.0 4.0 0.00 0.08 0.00 85 1009.8
20260509113537 68 343 1.0 5.0 0.00 0.08 0.00 85 1009.6
20260509113023 68 308 1.0 8.0 0.00 0.08 0.00 85 1009.5
20260509112532 68 292 2.0 9.0 0.00 0.08 0.00 84 1009.5
20260509112038 68 326 2.0 9.0 0.00 0.08 0.00 84 1009.5
20260509111547 68 297 1.0 8.0 0.00 0.08 0.00 84 1009.5
20260509111058 68 290 0.0 9.0 0.00 0.08 0.00 83 1009.5
20260509110546 68 296 5.0 10.0 0.00 0.08 0.00 83 1009.0
20260509110033 68 276 4.0 10.0 0.00 0.08 0.00 83 1009.3
20260509105524 68 280 5.0 12.0 0.00 0.08 0.00 82 1009.1
20260509105029 68 291 6.0 12.0 0.00 0.08 0.00 82 1009.0
20260509104532 68 286 5.0 10.0 0.00 0.31 0.00 82 1009.0
20260509104039 68 277 1.0 6.0 0.00 0.31 0.00 82 1008.9
20260509103528 68 258 0.0 6.0 0.00 0.31 0.00 81 1009.0
20260509103021 68 257 4.0 6.0 0.00 0.31 0.00 81 1008.9
20260509102531 68 251 1.0 6.0 0.00 0.31 0.00 80 1008.7
20260509102023 69 253 0.0 5.0 0.00 0.31 0.00 79 1008.7
20260509101550 69 264 0.0 3.0 0.00 0.31 0.00 79 1008.7
20260509101041 69 291 0.0 3.0 0.00 0.31 0.00 78 1008.6
20260509100529 69 291 0.0 0.0 0.00 0.31 0.00 77 1008.6
20260509100032 70 291 0.0 0.0 0.00 0.31 0.00 77 1008.7
20260509095541 70 291 0.0 0.0 0.00 0.31 0.00 76 1008.5
20260509095027 70 291 0.0 0.0 0.00 0.31 0.00 76 1008.4
20260509094529 70 291 0.0 3.0 0.00 0.35 0.00 75 1008.3
20260509094048 71 291 0.0 3.0 0.00 0.35 0.00 75 1008.2
20260509093538 71 291 0.0 1.0 0.00 0.35 0.00 74 1008.1
20260509093043 71 291 0.0 4.0 0.00 0.35 0.00 73 1008.0
20260509092525 72 291 1.0 4.0 0.00 0.35 0.00 72 1008.0
20260509092029 72 291 2.0 4.0 0.00 0.35 0.00 71 1007.9
20260509091540 73 327 0.0 3.0 0.00 0.35 0.00 70 1007.8
20260509091029 73 328 1.0 3.0 0.00 0.35 0.00 69 1007.8
20260509090557 73 264 0.0 3.0 0.00 0.35 0.00 68 1007.9
20260509090025 73 220 0.0 1.0 0.00 0.35 0.00 69 1007.8
20260509085531 73 247 0.0 13.0 0.00 0.35 0.00 71 1007.7
20260509085041 73 344 4.0 29.0 0.00 0.35 0.00 72 1008.1
20260509084526 72 251 13.0 29.0 0.00 0.36 0.00 72 1008.3
20260509084033 72 299 5.0 18.0 0.00 0.36 0.00 76 1008.0
20260509083525 72 229 8.0 18.0 0.00 0.36 0.00 75 1005.8
20260509083030 72 202 8.0 15.0 0.00 0.36 0.00 75 1005.7
20260509082532 71 191 7.0 13.0 0.00 0.36 0.00 77 1005.2
20260509082021 71 168 10.0 13.0 0.00 0.36 0.00 77 1005.4
20260509081559 71 237 9.0 12.0 0.00 0.36 0.00 77 1006.3
20260509081048 71 138 5.0 12.0 0.00 0.36 0.00 79 1005.4
20260509080536 71 206 6.0 14.0 0.00 0.36 0.00 81 1006.0
20260509080023 70 206 5.0 14.0 0.00 0.36 0.00 83 1006.5
20260509075526 70 200 9.0 14.0 0.00 0.36 0.00 84 1007.1
20260509075026 70 207 4.0 11.0 0.00 0.36 0.00 85 1007.6
20260509074531 70 217 4.0 11.0 0.00 0.47 0.00 85 1008.0
20260509074058 70 225 1.0 13.0 0.00 0.47 0.00 85 1008.4
20260509073525 70 227 7.0 15.0 0.00 0.47 0.00 86 1008.7
20260509073029 70 214 11.0 15.0 0.00 0.47 0.00 86 1008.9
20260509072539 70 237 5.0 13.0 0.00 0.47 0.00 86 1009.2
20260509072037 70 226 3.0 12.0 0.00 0.47 0.00 86 1009.3
20260509071538 69 245 1.0 10.0 0.00 0.47 0.00 86 1009.4
20260509071023 69 274 1.0 4.0 0.00 0.47 0.00 86 1009.5
20260509070558 69 213 0.0 10.0 0.00 0.47 0.00 86 1009.6
20260509070023 69 232 0.0 10.0 0.00 0.47 0.00 86 1010.0
20260509065547 69 219 2.0 7.0 0.00 0.47 0.00 86 1010.3
20260509065033 69 239 0.0 9.0 0.00 0.47 0.00 87 1010.2
20260509064536 69 224 0.0 9.0 0.00 0.47 0.00 86 1010.1
20260509064041 69 218 0.0 0.0 0.00 0.47 0.00 86 1010.4
20260509063548 68 249 0.0 2.0 0.00 0.47 0.00 86 1010.7
20260509063035 68 248 0.0 2.0 0.00 0.47 0.00 86 1010.7
20260509062545 69 230 0.0 0.0 0.00 0.47 0.00 86 1010.6
20260509062033 69 225 0.0 0.0 0.00 0.47 0.00 86 1010.7
20260509061533 69 254 0.0 0.0 0.00 0.47 0.00 85 1010.8
20260509061040 69 254 0.0 0.0 0.00 0.47 0.00 85 1010.8
20260509060546 69 260 0.0 0.0 0.00 0.47 0.00 85 1010.7